Weather History for KSAC - March, 2012

Change the Weather History Date:

Thursday, March 1, 2012

  Actual Average Record
Temperature  
Mean Temperature 50 °F -  
Max Temperature 56 °F 63 °F 74 °F (1954)
Min Temperature 44 °F 43 °F 31 °F (2007)
Degree Days  
Heating Degree Days 15    
Month to date heating degree days 15  
Cooling Degree Days 0    
Month to date cooling degree days 0  
Year to date cooling degree days 0  
Moisture  
Dew Point 43 °F    
Average Humidity 80    
Maximum Humidity 83    
Minimum Humidity 76    
Precipitation  
Precipitation T in 0.12 in 1.04 in (1982)
Month to date precipitation T 0.12  
Year to date precipitation 3.35 7.23  
Since 1 July precipitation 5.70  
Sea Level Pressure  
Sea Level Pressure 30.20 in    
Wind  
Wind Speed 7 mph (SSE)    
Max Wind Speed 17 mph    
Max Gust Speed 23 mph    
Visibility 10 miles    
Events Rain    
T = Trace of Precipitation, MM = Missing Value Source: NWS Daily Summary

Daily Weather History Graph

Daily Weather History Graph

Search for Another Location

Airport or City:

Trip Planner

Search our weather history database for the weather conditions in past years. The results will help you decide how hot, cold, wet, or windy it might be!

Date:

Astronomy

Mar. 01, 2012 Rise Set
Actual Time 6:37 AM PST 5:59 PM PST
Civil Twilight 6:10 AM PST 6:26 PM PST
Nautical Twilight 5:39 AM PST 6:56 PM PST
Astronomical Twilight 5:09 AM PST 7:27 PM PST
Moon 11:27 AM PST (3/1) 1:37 AM PST (3/1)
Length of Visible Light 12h 15m
Length of Day
11h 22m
First Quarter, 58% of the Moon is Illuminated
Mar 1
First Quarter
Mar 8
Full
Mar 14
Last Quarter
Mar 22
New
Mar 30
First Quarter

Hourly Weather History & Observations

Time (PST) Temp. Windchill Dew Point Humidity Pressure Visibility Wind Dir Wind Speed Gust Speed Precip Events Conditions
12:53 AM 44.6 °F 41.4 °F 39.2 °F 81% 30.23 in 10.0 mi SSW 5.8 mph - N/A   Clear
1:53 AM 46.0 °F 42.5 °F 39.9 °F 79% 30.22 in 10.0 mi SSW 6.9 mph - N/A   Mostly Cloudy
2:53 AM 46.0 °F 43.9 °F 39.9 °F 79% 30.22 in 10.0 mi SSW 4.6 mph - N/A   Overcast
3:53 AM 46.4 °F 43.5 °F 39.2 °F 76% 30.21 in 10.0 mi South 5.8 mph - N/A   Overcast
4:53 AM 46.0 °F 42.5 °F 39.9 °F 79% 30.20 in 10.0 mi South 6.9 mph - N/A   Overcast
5:53 AM 46.4 °F 43.5 °F 39.2 °F 76% 30.21 in 10.0 mi SSE 5.8 mph - N/A   Overcast
6:07 AM 44.6 °F 39.2 °F 39.2 °F 81% 30.21 in 10.0 mi SSE 10.4 mph - N/A   Overcast
6:31 AM 44.6 °F 39.7 °F 39.2 °F 81% 30.21 in 10.0 mi SSE 9.2 mph - N/A   Overcast
6:53 AM 45.0 °F 40.6 °F 39.9 °F 82% 30.21 in 10.0 mi SSE 8.1 mph - N/A   Overcast
7:53 AM 46.4 °F 42.4 °F 41.0 °F 81% 30.22 in 10.0 mi South 8.1 mph - N/A   Overcast
8:53 AM 48.9 °F - 41.0 °F 74% 30.22 in 10.0 mi South 11.5 mph 18.4 mph N/A   Overcast
9:53 AM 48.9 °F - 44.1 °F 83% 30.22 in 10.0 mi South 9.2 mph - 0.00 in Rain Light Rain
10:53 AM 50.0 °F - 44.1 °F 80% 30.22 in 10.0 mi South 9.2 mph - 0.00 in   Overcast
11:53 AM 50.0 °F - 44.6 °F 82% 30.22 in 10.0 mi SE 5.8 mph - N/A   Overcast
12:53 PM 52.0 °F - 46.9 °F 83% 30.19 in 10.0 mi SE 11.5 mph 23.0 mph N/A   Overcast
1:40 PM 55.4 °F - 46.4 °F 72% 30.17 in 10.0 mi SSE 9.2 mph - N/A   Mostly Cloudy
1:53 PM 54.0 °F - 48.0 °F 80% 30.17 in 10.0 mi SSE 12.7 mph - N/A   Overcast
2:24 PM 53.6 °F - 46.4 °F 77% 30.16 in 10.0 mi SE 10.4 mph - N/A   Overcast
2:53 PM 53.6 °F - 46.4 °F 77% 30.16 in 10.0 mi SE 9.2 mph - N/A   Overcast
3:53 PM 53.1 °F - 45.0 °F 74% 30.16 in 10.0 mi East 12.7 mph - N/A   Overcast
4:53 PM 54.0 °F - 46.0 °F 75% 30.15 in 10.0 mi ESE 11.5 mph - N/A   Overcast
5:53 PM 52.0 °F - 45.0 °F 77% 30.17 in 10.0 mi ESE 9.2 mph - N/A   Clear
6:53 PM 50.0 °F - 45.0 °F 83% 30.18 in 10.0 mi ESE 6.9 mph - N/A   Clear
7:53 PM 48.0 °F - 44.1 °F 86% 30.20 in 10.0 mi East 5.8 mph - N/A   Clear
8:53 PM 46.9 °F - 43.0 °F 86% 30.23 in 10.0 mi NE 5.8 mph - N/A   Clear
9:53 PM 46.9 °F - 42.1 °F 83% 30.24 in 10.0 mi NE 3.5 mph - N/A   Clear
10:53 PM 45.0 °F - 42.1 °F 90% 30.25 in 10.0 mi Calm Calm - N/A   Clear
11:53 PM 44.1 °F 39.5 °F 39.9 °F 85% 30.26 in 10.0 mi NNW 8.1 mph - N/A   Clear